This demonstration page uses our WeatherBlox Daily Observations layout. Learn more.

Left ArrowRight Arrow

47.50024, -111.30081

Hourly Observations for April 11, 2019

Temp ( °F °C ) Dew Point ( °F °C ) Humidity (%) Winds ( mph kmh ) Pressure ( in mb ) Visibility ( mi km ) Precip ( " mm )
12:53 am 00:53 Cloudy 36 2.2 35 1.7 97 97 SSW 5 7 30.04 1017 10 16 0.00 0.00
1:53 am 01:53 Cloudy 36 2.2 35 1.7 97 97 S 6 9 30.03 1017 10 16 0.00 0.03
2:05 am 02:05 Cloudy 36 2.2 36 2.2 100 100 S 7 11 30.03 1017 10 16 0.00 0.00
2:50 am 02:50 Cloudy with Light Rain 36 2 36 2 100 100 SSE 7 11 30.01 1016 10 16 0.01 0.25
2:53 am 02:53 Cloudy with Light Rain 36 2.2 35 1.7 97 97 SSE 6 9 30.02 1017 10 16 0.01 0.25
3:53 am 03:53 Cloudy 36 2.2 35 1.7 97 97 SE 6 9 30.00 1016 10 16 0.00 0.03
4:53 am 04:53 Cloudy 35 1.7 35 1.7 100 100 SE 6 9 29.99 1016 10 16 0.00 0.00
5:53 am 05:53 Cloudy 34 1.1 33 0.6 97 97 SSE 7 11 29.98 1015 10 16 0.00 0.00
6:53 am 06:53 Mostly Cloudy 33 0.6 32 0 96 96 S 8 13 29.97 1015 10 16 0.00 0.00
7:53 am 07:53 Mostly Sunny 33 0.6 32 0 96 96 SSW 8 13 29.97 1015 10 16 0.00 0.00
8:53 am 08:53 Sunny 36 2.2 32 0 86 86 SW 10 17 29.97 1015 10 16 0.00 0.00
9:53 am 09:53 Sunny 40 4.4 32 0 73 73 SW 9 15 29.95 1014 10 16 0.00 0.00
10:53 am 10:53 Cloudy 44 6.7 30 -1.1 58 58 W 7 11 29.93 1014 10 16 0.00 0.00
11:53 am 11:53 Mostly Cloudy 47 8.3 30 -1.1 52 52 VRB 6 9 29.91 1013 10 16 0.00 0.00
12:53 pm 12:53 Cloudy with Light Rain 41 5 36 2.2 82 82 ESE 10 17 29.92 1013 10 16 0.00 0.03
1:11 pm 13:11 Cloudy with Light Rain 40 4.4 37 2.8 89 89 ESE 13 20 29.89 1012 10 16 0.01 0.25
1:53 pm 13:53 Cloudy 42 5.6 37 2.8 82 82 E 9 15 29.91 1013 10 16 0.01 0.25
2:10 pm 14:10 Cloudy with Rain 38 3.3 35 1.7 89 89 NNE 7 11 29.91 1013 5 8 0.00 0.03
2:17 pm 14:17 Mostly Cloudy with Heavy Rain 36 2.2 34 1.1 93 93 NE 8 13 29.93 1013 2 3 0.02 0.51
2:26 pm 14:26 Cloudy with Rain 36 2.2 35 1.7 97 97 ENE 9 15 29.93 1013 3 5 0.04 1.02
2:36 pm 14:36 Cloudy with Light Rain 41 5 39 3.9 93 93 E 9 15 29.89 1012 10 16 0.04 1.02
2:53 pm 14:53 Mostly Cloudy 43 6.1 40 4.4 89 89 ENE 12 19 29.90 1013 10 16 0.04 1.02
3:53 pm 15:53 Mostly Sunny 42 5.6 35 1.7 76 76 ENE 8 13 29.90 1013 10 16 0.00 0.00
4:53 pm 16:53 Cloudy 44 6.7 35 1.7 71 71 E 9 15 29.89 1012 10 16 0.00 0.00
5:20 pm 17:20 Cloudy 44 6.7 33 0.6 65 65 ENE 6 9 29.84 1011 10 16 0.00 0.00
5:28 pm 17:28 Cloudy 44 6.7 34 1.1 68 68 NE 5 7 29.84 1011 10 16 0.00 0.00
5:53 pm 17:53 Cloudy 41 5 35 1.7 79 79 W 8 13 29.91 1013 10 16 0.00 0.00
6:21 pm 18:21 Mostly Cloudy with Nearby Thunderstorms 39 3.9 35 1.7 86 86 W 14 22 29.88 1012 10 16 0.00 0.00
6:35 pm 18:35 Mostly Cloudy 38 3.3 34 1.1 86 86 NNW 17 28 29.91 1013 10 16 0.00 0.00
6:42 pm 18:42 Mostly Cloudy with Light Snow 36 2.2 33 0.6 89 89 NNW 18 30 29.93 1013 4 6 0.00 0.03
6:44 pm 18:44 Windy with Snow Likely 35 1.7 33 0.6 93 93 NNW 20 31 29.94 1014 3 4 0.01 0.25
6:48 pm 18:48 Cloudy with Light Snow 34 1 34 1 100 100 NW 18 30 29.95 1014 1 2 0.03 0.76
6:51 pm 18:51 Windy with Snow Likely 34 1 34 1 100 100 NW 20 31 29.95 1014 1 1 0.05 1.27
6:53 pm 18:53 Windy with Snow Likely 33 0.6 33 0.6 100 100 NW 20 31 29.95 1014 1 1 0.06 1.52
7:22 pm 19:22 Cloudy with Light Snow 32 0 32 0 100 100 NW 16 26 29.96 1015 1 2 0.09 2.29
7:26 pm 19:26 Cloudy with Light Snow 32 0 32 0 100 100 WNW 15 24 29.96 1015 2 3 0.09 2.29
7:33 pm 19:33 Cloudy with Light Snow 32 0 32 0 100 100 WNW 16 26 29.96 1015 2 3 0.10 2.54
7:45 pm 19:45 Cloudy with Light Snow 32 0 32 0 100 100 WNW 14 22 29.96 1015 6 10 0.11 2.79
7:53 pm 19:53 Cloudy 32 0 32 0 100 100 WNW 14 22 29.96 1014 8 13 0.11 2.79
8:19 pm 20:19 Cloudy 32 0 32 0 100 100 W 9 15 29.96 1015 10 16 0.00 0.00
8:53 pm 20:53 Cloudy 32 0 32 0 100 100 WSW 7 11 29.96 1014 10 16 0.00 0.00
9:53 pm 21:53 Cloudy 32 0 32 0 100 100 WSW 5 7 29.94 1014 10 16 0.00 0.00
10:30 pm 22:30 Mostly Cloudy with Mist and Fog 30 -1.1 30 -1.1 100 100 S 7 11 29.98 1015 1 2 0.00 0.00
10:34 pm 22:34 Cloudy with Freezing Fog 31 -0.6 31 -0.6 100 100 S 6 9 29.97 1015 0 0 0.00 0.00
10:44 pm 22:44 Cloudy with Mist and Fog 31 -0.6 31 -0.6 100 100 SSW 7 11 29.97 1015 1 2 0.00 0.00
10:46 pm 22:46 Cloudy with Mist and Fog 31 -0.6 31 -0.6 100 100 SSW 7 11 29.97 1015 3 4 0.00 0.00
10:53 pm 22:53 Cloudy with Mist and Fog 31 -0.6 31 -0.6 100 100 SSW 8 13 29.93 1014 3 4 0.00 0.00
10:57 pm 22:57 Cloudy with Mist and Fog 31 -0.6 31 -0.6 100 100 SSW 8 13 29.98 1015 1 2 0.00 0.00
11:02 pm 23:02 Cloudy with Mist and Fog 31 -0.6 31 -0.6 100 100 SSW 7 11 29.98 1015 1 1 0.00 0.00
11:10 pm 23:10 Cloudy with Freezing Fog 31 -0.6 31 -0.6 100 100 SW 7 11 29.98 1015 0 0 0.00 0.00
11:31 pm 23:31 Cloudy with Freezing Fog 31 -0.6 31 -0.6 100 100 SW 6 9 29.98 1015 0 0 0.00 0.00
11:53 pm 23:53 Cloudy 32 0 32 0 100 100 SW 9 15 29.92 1013 2 2 0.00 0.00

Powered by AerisWeather